Weather in Norway House

Canada     53°59′25″N   97°48′56″W
temp.,
°C
wind,
m/s
gust,
m/s
humid.,
%
clouds,
%
prec.,
mm/h
press.,
hPa
HPBL,
m
23 october, sat
sat2301:00+1ene2482100 0.0 1024250
04:00+1e1392100 0.0 1024225
07:00+1e2493100 0.0 1024217
10:00+1ese248179 0.0 1023344
13:00+5se235986 0.0 10211133
16:00+5ese2359100 0.0 1020988
19:00+3e256999 0.0 1020251
22:00+3ese2669100 0.0 1021334
24 october, sun
sun2401:00+2ese2674100 0.0 1021328
04:00+3se3564100 0.0 1021366
07:00+3se3561100 0.0 1021342
10:00+3ese356475 0.0 1022823
13:00+5se34505 0.0 10221088
16:00+6se34475 0.0 10221083
19:00+2ese26650 0.0 1022133
22:000se28750 0.0 1024189
25 october, mon
mon2501:00−1se39845 0.0 1023202
04:00−2se38935 0.0 1024188
07:00−2se39925 0.0 1024219
10:000sse498311 0.0 1024300
13:00+5sse48607 0.0 1022691
16:00+6sse4953100 0.0 1020933
19:00+3se4126763 0.0 1019451
22:00+2sse51471100 0.0 1018563
26 october, tue
tue2601:00+1se41275100 0.0 1017482
04:00+2se51474100 0.0 1015516
07:00+2se51474100 0.0 1013588
10:00+3se51568100 0.0 1011690
13:00+7se61557100 0.0 1009852
16:00+8sse61553100 0.0 10071130
19:00+7sse61557100 0.3 1006970
22:00+9sse71555100 0.1 10041190
27 october, wed
wed2701:00+9sse71459100 0.1 10031194
04:00+8sse71370100 0.0 1002978
07:00+8sse61372100 0.0 10021009
10:00+7sse41289100 1.6 1003886
13:00+7sse51291100 4.6 1003906
16:00+7sse51192100 1.1 1003873
19:00+7sse41093100 1.4 1004748
22:00+7s4895100 0.2 1006548